TimePST,TemperatureF,Dew PointF,Humidity,Sea Level PressureIn,VisibilityMPH,Wind Direction,Wind SpeedMPH,Gust SpeedMPH,PrecipitationIn,Events,Conditions,WindDirDegrees,DateUTC
12:53 AM,23.0,12.0,63,30.33,10.0,SSE,9.2,-,N/A,,Clear,160,2011-11-16 08:53:00
1:53 AM,23.0,12.9,65,30.33,10.0,SE,8.1,-,N/A,,Clear,140,2011-11-16 09:53:00
2:53 AM,21.0,12.9,71,30.34,10.0,ENE,3.5,-,N/A,,Clear,70,2011-11-16 10:53:00
3:53 AM,19.9,14.0,78,30.33,10.0,ENE,4.6,-,N/A,,Clear,60,2011-11-16 11:53:00
4:53 AM,19.9,12.0,71,30.33,10.0,ENE,5.8,-,N/A,,Clear,60,2011-11-16 12:53:00
5:53 AM,18.0,12.0,78,30.35,10.0,ENE,3.5,-,N/A,,Partly Cloudy,60,2011-11-16 13:53:00
6:53 AM,18.0,12.0,78,30.35,10.0,NE,3.5,-,N/A,,Scattered Clouds,50,2011-11-16 14:53:00
7:53 AM,19.4,12.2,74,30.24,10.0,ENE,5.8,-,N/A,,Mostly Cloudy,60,2011-11-16 15:53:00
8:53 AM,21.9,14.0,72,30.32,10.0,NE,8.1,-,N/A,,Mostly Cloudy,50,2011-11-16 16:53:00
9:53 AM,24.1,16.0,71,30.30,10.0,ENE,8.1,-,N/A,,Overcast,60,2011-11-16 17:53:00
10:53 AM,26.1,17.1,69,30.28,10.0,NE,11.5,-,N/A,,Overcast,50,2011-11-16 18:53:00
11:53 AM,28.0,17.1,63,30.23,10.0,NE,9.2,-,N/A,,Overcast,50,2011-11-16 19:53:00
12:53 PM,28.9,18.0,64,30.20,10.0,NE,8.1,-,N/A,,Overcast,40,2011-11-16 20:53:00
1:53 PM,28.9,18.0,64,30.17,10.0,ENE,6.9,-,N/A,,Overcast,70,2011-11-16 21:53:00
2:53 PM,30.9,18.0,59,30.13,10.0,East,6.9,-,N/A,,Overcast,90,2011-11-16 22:53:00
3:53 PM,30.2,19.4,64,30.02,10.0,ENE,6.9,-,N/A,,Overcast,60,2011-11-16 23:53:00
4:53 PM,32.0,18.0,56,30.07,10.0,East,3.5,-,N/A,,Overcast,90,2011-11-17 00:53:00
5:53 PM,32.0,19.0,59,30.04,7.0,SE,11.5,18.4,0.00,Snow,Light Snow,130,2011-11-17 01:53:00
5:58 PM,32.0,19.4,60,29.95,2.0,SSE,8.1,18.4,0.00,Snow,Light Snow,160,2011-11-17 01:58:00
6:08 PM,30.2,24.8,80,29.94,4.0,SSE,8.1,-,0.00,Snow,Light Snow,150,2011-11-17 02:08:00
6:53 PM,32.0,30.0,92,29.98,1.5,SSE,12.7,-,0.01,Snow,Light Snow,150,2011-11-17 02:53:00
7:39 PM,32.0,30.2,93,29.86,1.5,SE,16.1,24.2,0.02,Snow,Light Snow,140,2011-11-17 03:39:00
7:53 PM,32.0,30.9,96,29.93,1.5,SSE,16.1,23.0,0.03,Snow,Light Snow,150,2011-11-17 03:53:00
8:53 PM,33.1,32.0,96,29.87,1.5,SSE,20.7,26.5,0.03,Snow,Light Snow,150,2011-11-17 04:53:00
9:19 PM,33.8,32.0,93,29.78,5.0,SSE,15.0,26.5,0.01,,Overcast,150,2011-11-17 05:19:00
9:53 PM,34.0,32.0,92,29.82,5.0,SSE,17.3,24.2,0.01,,Overcast,150,2011-11-17 05:53:00
10:53 PM,35.1,34.0,96,29.74,4.0,SSE,16.1,24.2,0.01,,Light Drizzle,160,2011-11-17 06:53:00
11:53 PM,36.0,34.0,93,29.70,4.0,SSE,17.3,24.2,0.02,Rain,Light Rain,160,2011-11-17 07:53:00